Poplar Bluff, MO

4:59 AM CST on December 13, 2019 (GMT -0600)
Poplar Bluff Municipal

Weather History for KPOF - October, 2019

Change the Weather History Date:

Saturday, October 12, 2019

  Actual Average Record
Temperature  
Mean Temperature 46 °F 60 °F  
Max Temperature 59 °F 73 °F 91 °F (1953)
Min Temperature 34 °F 47 °F 32 °F (1987)
Degree Days  
Heating Degree Days 18 6  
Month to date heating degree days 39 58  
Since 1 July heating degree days 39 87  
Cooling Degree Days 0 1  
Month to date cooling degree days 49 22  
Year to date cooling degree days 1830 1549  
Moisture  
Dew Point 33 °F    
Average Humidity 66    
Maximum Humidity 93    
Minimum Humidity 32    
Precipitation  
Precipitation 0.00 in 0.14 in 2.20 in (1949)
Month to date precipitation 1.03 1.52  
Year to date precipitation 55.65 36.05  
Sea Level Pressure  
Sea Level Pressure 30.19 in    
Wind  
Wind Speed 3 mph ()    
Max Wind Speed 10 mph    
Max Gust Speed 15 mph    
Visibility 10.0 miles    
Events      
T = Trace of Precipitation, MM = Missing Value Source: Averaged Metar Reports

Daily Weather History Graph

Daily Weather History Graph

Search for Another Location

Airport or City:

Astronomy

Oct. 12, 2019 Rise Set
Actual Time 7:05 AM CDT 6:29 PM CDT
Civil Twilight 6:39 AM CDT 6:55 PM CDT
Nautical Twilight 6:09 AM CDT 7:25 PM CDT
Astronomical Twilight 5:39 AM CDT 7:55 PM CDT
Moon 6:22 PM CDT (10/12) 5:47 AM CDT (10/12)
Length of Visible Light 12h 15m
Length of Day
11h 23m
Waxing Gibbous, 99% of the Moon is Illuminated
Oct 12
Waxing Gibbous
Oct 13
Full
Oct 21
Last Quarter
Oct 27
New
Nov 4
First Quarter

Hourly Weather History & Observations

Time (CDT) Temp. Windchill Dew Point Humidity Pressure Visibility Wind Dir Wind Speed Gust Speed Precip Events Conditions
12:53 AM 39.9 °F - 37.9 °F 93% 30.25 in 10.0 mi Calm Calm - N/A   Clear
1:53 AM 39.0 °F 36.8 °F 36.0 °F 89% 30.25 in 10.0 mi NW 3.5 mph - N/A   Clear
2:53 AM 37.9 °F 33.5 °F 34.0 °F 86% 30.24 in 10.0 mi WNW 5.8 mph - N/A   Clear
3:53 AM 37.0 °F 34.5 °F 34.0 °F 89% 30.24 in 10.0 mi NW 3.5 mph - N/A   Clear
4:53 AM 37.0 °F 33.3 °F 33.1 °F 86% 30.25 in 10.0 mi NW 4.6 mph - N/A   Clear
5:53 AM 35.1 °F - 32.0 °F 89% 30.26 in 10.0 mi North - - N/A   Clear
6:53 AM 35.1 °F - 32.0 °F 89% 30.26 in 10.0 mi Calm Calm - N/A   Clear
7:53 AM 37.0 °F - 34.0 °F 89% 30.26 in 10.0 mi Calm Calm - N/A   Clear
8:53 AM 41.0 °F 39.0 °F 35.1 °F 79% 30.26 in 10.0 mi WNW 3.5 mph - N/A   Clear
9:53 AM 46.9 °F - 36.0 °F 66% 30.28 in 10.0 mi Calm Calm - N/A   Clear
10:53 AM 51.1 °F - 28.9 °F 43% 30.27 in 10.0 mi SSW 5.8 mph - N/A   Clear
11:53 AM 52.0 °F - 27.0 °F 38% 30.25 in 10.0 mi Variable 3.5 mph - N/A   Clear
12:53 PM 54.0 °F - 28.9 °F 38% 30.22 in 10.0 mi Variable 3.5 mph - N/A   Clear
1:53 PM 55.9 °F - 28.9 °F 36% 30.17 in 10.0 mi Variable 5.8 mph - N/A   Clear
2:53 PM 57.9 °F - 28.0 °F 32% 30.15 in 10.0 mi Variable 6.9 mph - N/A   Clear
3:53 PM 59.0 °F - 30.0 °F 33% 30.12 in 10.0 mi South 8.1 mph - N/A   Clear
4:53 PM 57.9 °F - 28.9 °F 33% 30.11 in 10.0 mi South 5.8 mph - N/A   Clear
5:53 PM 57.0 °F - 30.9 °F 37% 30.10 in 10.0 mi South 5.8 mph - N/A   Clear
6:53 PM 52.0 °F - 33.1 °F 49% 30.10 in 10.0 mi SSW 4.6 mph - N/A   Clear
7:53 PM 48.9 °F - 35.1 °F 59% 30.09 in 10.0 mi SSW 3.5 mph - N/A   Clear
8:53 PM 45.0 °F - 37.9 °F 76% 30.09 in 10.0 mi Calm Calm - N/A   Clear
9:53 PM 43.0 °F - 37.0 °F 80% 30.09 in 10.0 mi Calm Calm - N/A   Clear
10:53 PM 41.0 °F - 37.0 °F 86% 30.08 in 10.0 mi Calm Calm - N/A   Clear
11:53 PM 39.9 °F - 37.0 °F 89% 30.07 in 10.0 mi Calm Calm - N/A   Clear